EST,Max TemperatureF,Mean TemperatureF,Min TemperatureF,Max Dew PointF,MeanDew PointF,Min DewpointF,Max Humidity, Mean Humidity, Min Humidity, Max Sea Level PressureIn, Mean Sea Level PressureIn, Min Sea Level PressureIn, Max VisibilityMiles, Mean VisibilityMiles, Min VisibilityMiles, Max Wind SpeedMPH, Mean Wind SpeedMPH, Max Gust SpeedMPH,PrecipitationIn, CloudCover, Events, WindDirDegrees
2012-11-1,53,47,40,48,45,41,100,89,77,29.56,29.52,29.49,10,10,10,8,4,10,T,6,,167
2012-11-2,54,47,39,44,42,38,100,80,59,29.55,29.51,29.48,10,10,9,9,2,10,T,7,Rain,311
2012-11-3,50,44,38,40,37,34,92,76,60,29.68,29.61,29.55,10,10,10,18,6,23,T,7,,307
2012-11-4,48,42,35,37,33,26,82,70,58,29.91,29.79,29.69,10,10,10,20,9,25,0.00,7,,310
2012-11-5,36,32,27,29,23,13,92,75,58,30.07,29.99,29.93,10,9,1,18,7,21,T,7,Snow,314
2012-11-6,38,29,20,19,16,12,84,61,38,30.28,30.18,30.07,10,10,10,15,5,18,T,1,,273
2012-11-7,36,27,17,30,20,16,91,68,44,30.29,30.14,29.97,10,8,1,21,8,26,0.03,6,Snow,22
2012-11-8,36,34,31,35,32,30,100,96,92,29.95,29.82,29.74,10,4,1,23,16,28,0.89,8,Rain-Snow,8
2012-11-9,44,38,32,34,32,25,92,76,59,30.00,29.83,29.73,10,9,5,22,14,28,0.01,5,,323
2012-11-10,44,33,22,28,21,14,85,59,32,30.48,30.25,29.99,10,10,10,23,7,29,0.00,2,,298
2012-11-11,40,30,20,32,27,19,92,76,59,30.55,30.47,30.43,10,10,10,7,1,8,T,6,,350
2012-11-12,66,52,38,54,45,33,100,69,37,30.44,30.37,30.25,10,5,0,21,4,26,0.00,4,Fog,185
2012-11-13,59,46,32,57,47,27,100,85,70,30.42,30.20,30.09,10,8,2,25,12,39,0.20,8,Rain,264
2012-11-14,42,34,25,27,24,23,92,69,45,30.57,30.53,30.45,10,10,10,16,7,22,0.00,0,,357
2012-11-15,40,33,25,27,25,22,88,74,59,30.53,30.43,30.33,10,10,10,15,9,20,0.00,5,,10
2012-11-16,39,32,24,28,26,23,100,80,59,30.43,30.33,30.29,10,10,10,9,5,13,0.00,5,,348
2012-11-17,40,30,19,27,21,17,100,74,47,30.69,30.60,30.43,10,10,10,14,3,17,0.00,1,,351
2012-11-18,42,29,16,23,19,14,92,66,39,30.77,30.72,30.68,10,10,10,8,1,9,0.00,2,Fog,343
2012-11-19,45,31,17,28,23,17,92,73,53,30.66,30.48,30.29,10,10,10,6,1,15,0.00,2,,152
2012-11-20,47,33,18,27,22,16,100,71,42,30.27,30.22,30.16,10,10,6,9,1,12,0.00,1,,356
2012-11-21,45,35,24,36,29,23,100,85,70,30.32,30.28,30.22,10,4,0,9,3,26,0.00,4,Fog,11
2012-11-22,49,37,25,39,29,24,100,83,66,30.28,30.23,30.10,10,3,0,8,0,12,0.00,2,Fog,193
2012-11-23,52,39,26,43,39,27,100,86,71,30.10,29.91,29.64,10,6,0,20,6,25,0.00,6,Fog,185
2012-11-24,46,38,29,43,36,18,100,78,56,29.61,29.47,29.41,10,10,8,18,5,26,T,8,Rain,269
2012-11-25,32,28,24,19,13,10,69,56,43,29.72,29.56,29.42,10,10,10,21,10,32,T,5,,270
2012-11-26,38,27,15,18,13,5,88,60,32,30.22,29.95,29.72,10,10,10,17,6,26,0.00,2,,278
2012-11-27,33,24,15,16,14,12,80,64,47,30.34,30.31,30.23,10,10,10,8,3,10,0.00,5,,222
2012-11-28,31,24,16,18,16,14,84,69,53,30.29,30.19,30.09,10,10,9,10,4,13,T,7,Snow,1
2012-11-29,35,26,16,25,16,7,92,63,33,30.19,30.09,30.03,10,9,3,21,5,26,T,6,Snow,277
2012-11-30,25,17,8,9,2,0,67,51,35,30.62,30.48,30.23,10,10,10,21,10,24,0.00,1,,311